Time,TemperatureF,DewpointF,PressureIn,WindDirection,WindDirectionDegrees,WindSpeedMPH,WindSpeedGustMPH,Humidity,HourlyPrecipIn,Conditions,Clouds,dailyrainin,SoftwareType,DateUTC
2013-05-21 15:42:00,90.0,71.0,29.92,South,189,1.0,-999.0,53,-99.99,,,-99.99,,2013-05-21 19:42:00,
2013-05-21 15:52:00,90.0,71.0,29.92,South,189,1.0,-999.0,53,-99.99,,,-99.99,,2013-05-21 19:52:00,
2013-05-21 16:03:00,89.0,72.0,29.91,SW,222,0.0,-999.0,58,-99.99,,,-99.99,,2013-05-21 20:03:00,
2013-05-21 16:11:00,89.0,72.0,29.91,SW,222,0.0,-999.0,58,-99.99,,,-99.99,,2013-05-21 20:11:00,
2013-05-21 16:22:00,89.0,73.0,29.91,WSW,248,1.0,-999.0,59,-99.99,,,-99.99,,2013-05-21 20:22:00,
2013-05-21 16:32:00,88.0,72.0,29.91,SSW,205,1.0,-999.0,60,-99.99,,,-99.99,,2013-05-21 20:32:00,
2013-05-21 16:42:00,88.0,73.0,29.91,SW,219,1.0,-999.0,61,-99.99,,,-99.99,,2013-05-21 20:42:00,
2013-05-21 16:52:00,88.0,73.0,29.91,SW,219,1.0,-999.0,61,-99.99,,,-99.99,,2013-05-21 20:52:00,
2013-05-21 17:02:00,87.0,71.0,29.90,WSW,257,1.0,-999.0,59,-99.99,,,-99.99,,2013-05-21 21:02:00,
2013-05-21 17:11:00,87.0,71.0,29.90,WSW,257,1.0,-999.0,59,-99.99,,,-99.99,,2013-05-21 21:11:00,
2013-05-21 17:21:00,87.0,73.0,29.90,SW,228,0.0,-999.0,63,-99.99,,,-99.99,,2013-05-21 21:21:00,
2013-05-21 17:33:00,86.0,69.0,29.93,South,186,3.0,-999.0,58,-99.99,,,-99.99,,2013-05-21 21:33:00,
2013-05-21 17:43:00,84.0,67.0,29.95,West,264,1.0,-999.0,57,-99.99,,,-99.99,,2013-05-21 21:43:00,
2013-05-21 17:54:00,84.0,67.0,29.95,West,264,1.0,-999.0,57,-99.99,,,-99.99,,2013-05-21 21:54:00,
2013-05-21 18:02:00,84.0,67.0,29.95,West,264,1.0,-999.0,57,-99.99,,,-99.99,,2013-05-21 22:02:00,
2013-05-21 18:12:00,84.0,67.0,29.95,West,264,1.0,-999.0,57,-99.99,,,-99.99,,2013-05-21 22:12:00,
2013-05-21 18:23:00,84.0,67.0,29.95,West,264,1.0,-999.0,57,-99.99,,,-99.99,,2013-05-21 22:23:00,
2013-05-21 18:33:00,84.0,67.0,29.95,West,264,1.0,-999.0,57,-99.99,,,-99.99,,2013-05-21 22:33:00,
2013-05-21 21:42:00,67.0,64.0,29.93,NE,36,0.0,-999.0,91,-99.99,,,-99.99,,2013-05-22 01:42:00,
2013-05-21 21:52:00,67.0,64.0,29.93,NE,36,0.0,-999.0,91,-99.99,,,-99.99,,2013-05-22 01:52:00,
2013-05-21 22:02:00,66.0,63.0,29.93,NE,36,0.0,-999.0,91,-99.99,,,-99.99,,2013-05-22 02:02:00,
2013-05-21 22:12:00,66.0,63.0,29.93,NE,36,0.0,-999.0,91,-99.99,,,-99.99,,2013-05-22 02:12:00,
2013-05-21 22:21:00,66.0,63.0,29.93,NE,36,0.0,-999.0,91,-99.99,,,-99.99,,2013-05-22 02:21:00,
2013-05-21 22:32:00,65.0,62.0,29.93,NE,36,0.0,-999.0,91,-99.99,,,-99.99,,2013-05-22 02:32:00,
2013-05-21 22:42:00,65.0,62.0,29.94,NE,36,0.0,-999.0,91,-99.99,,,-99.99,,2013-05-22 02:42:00,
2013-05-21 22:52:00,65.0,62.0,29.94,NE,36,0.0,-999.0,91,-99.99,,,-99.99,,2013-05-22 02:52:00,
2013-05-21 23:01:00,65.0,63.0,29.94,NE,36,0.0,-999.0,92,-99.99,,,-99.99,,2013-05-22 03:01:00,
2013-05-21 23:11:00,65.0,63.0,29.95,NE,36,0.0,-999.0,92,-99.99,,,-99.99,,2013-05-22 03:11:00,
2013-05-21 23:21:00,65.0,63.0,29.95,NE,36,0.0,-999.0,92,-99.99,,,-99.99,,2013-05-22 03:21:00,
2013-05-21 23:33:00,64.0,62.0,29.96,NE,36,0.0,-999.0,92,-99.99,,,-99.99,,2013-05-22 03:33:00,
2013-05-21 23:43:00,64.0,62.0,29.96,NE,36,0.0,-999.0,93,-99.99,,,-99.99,,2013-05-22 03:43:00,
2013-05-21 23:53:00,64.0,62.0,29.96,NE,36,0.0,-999.0,93,-99.99,,,-99.99,,2013-05-22 03:53:00,